221P/LINEAR (2015)

Japanese version
Home page
Updated on November 3, 2015

---------------------------------------------------------------------

* Profile

* Pictures

* Orbital Elements

Epoch 2015 June 27.0 TT = JDT 2457200.5
T 2015 July 11.62190 TT                                 MPCW
q   1.7583077            (2000.0)            P               Q
n   0.15315746     Peri.   39.94697     -0.01487093     +0.98839441
a   3.4597438      Node   229.75726     -0.96051550     -0.05613251
e   0.4917809      Incl.   11.42337     -0.27782878     +0.14115818
P   6.44
From 166 observations 2002 Apr. 14-2015 Mar. 27, mean residual 0".6.

* Finding Charts

* Magnitudes Graph

        m1 =  9.0 + 5 log d + 30.0 log r  [ ,0]  (             - 2015 July 11)
        m1 = 14.0 + 5 log d + 10.0 log r  [0, ]  (2015 July 11 -             )

---------------------------------------------------------------------

The orbital elements are published on M.P.E.C. 2015-G03.
The charts are made with StellaNavigator Ver.8 (AstroArts).
The magnitudes graphs are made with Comet for Windows.

---------------------------------------------------------------------

Copyright(C) Seiichi Yoshida (comet@aerith.net). All rights reserved.